Grizzly Air Cargo 5381


PANI
Aniak Airport
Aniak, Alaska, US
PAKN
King Salmon Airport
King Salmon, Alaska, US

Activity Log

Date Flight Route Aircraft Duration
No Flights Yet

Route Details

Aircraft Information
Primary: Saab 340AF
Backup: Not Available
Route Data
Distance: 219nm
Sched. Duration: 1h 00m
Avg. Duration: 0h 00m (-100m)
Times Flown: 0
Recm'd Route: ANI SLIIM Q51 AKN
Planned Altitude: 21,000ft
Origin Wx: PANI 220256Z AUTO 14020KT 10SM OVC080 04/00 A2970 RMK AO2 PK WND 14028/0220 SLP050 60000 T00390000 56021
Dest. Wx: PAKN 220254Z 14013G23KT 10SM OVC075 06/M01 A2968 RMK AO2 SLP050 T00561006 56010
Notes:

Financial History
Total Freight: 0lbs
Average Load: 0lbs/flt
Fuel Used: 0lbs
Avg. Fuel Used: 0lbs/flt
Fuel Expense: $0
Avg. Fuel Expense: $0
Avg. Fuel Cost: $0/lbs
Total Gross Income: $0
Pilot Pay: $0
Total Expenses: $0
Total Revenue: $0
Average Revenue: $0